Flag for Australia Weather past 2 weeks in Sydney, New South Wales, Australia

Now
59 °F

Clear.


Feels Like: 60 °F
Forecast: 55 / 68 °F
Wind: 3 mph from North

Location: Sydney Airport

Current Time: Jul 28, 2014 at 9:58:31 PM

Latest Report: Jul 28, 2014 at 9:00 PM


Visibility: 10 mi

Pressure: 30.09 "Hg

Humidity: 55%

Dew point: 43 °F

Location of SydneyLocation

Historic Weather in Sydney — Graph

°F

Sydney temperature yesterday

Maximum temperature yesterday: 64 °F (at 11:30 AM)
Minimum temperature yesterday: 48 °F (at 5:00 AM)
Average temperature yesterday: 56 °F

Past Weeks' High & Low Weather Summary

 TemperatureHumidityPressure
High68 °F (Jul 17, 12:30 PM)100% (Jul 14, 11:00 PM)30.48 "Hg (Jul 14, 11:00 PM)
Low43 °F (Jul 14, 3:00 AM)26% (Jul 17, 3:00 PM)29.74 "Hg (Jul 18, 5:00 AM)
Average56 °F66%30.14 "Hg
* Reported Jul 13 8:00 PM — Jul 28 8:30 PM, Sydney, Weather by CustomWeather, © 2014

Note: Actual official high and low records may vary slightly from our data, if they occured in-between our weather recording intervals... More about our weather records

Advertising

Sydney weather history for previous 24 hours

 ConditionsComfort  
Time TempWeatherWind HumidityBarometerVisibility
8:30 PM
Jul 28
59 °FClear.6 mph55%30.09 "Hg10 mi
8:00 PM59 °FPassing clouds.6 mph51%30.09 "HgN/A
7:30 PM61 °FClear.6 mph45%30.07 "Hg10 mi
7:00 PM63 °FClear.6 mph42%30.07 "Hg10 mi
6:30 PM63 °FClear.6 mph42%30.07 "Hg10 mi
6:00 PM63 °FClear.7 mph42%30.07 "Hg10 mi
5:30 PM63 °FClear.6 mph39%30.07 "Hg10 mi
5:00 PM64 °FClear.7 mph37%30.07 "Hg10 mi
4:30 PM64 °FClear.7 mph37%30.07 "Hg10 mi
4:00 PM64 °FSunny.8 mph34%30.07 "Hg10 mi
3:30 PM66 °FSunny.12 mph35%30.07 "Hg10 mi
3:00 PM66 °FSunny.13 mph35%30.04 "Hg10 mi
2:30 PM66 °FSunny.14 mph35%30.07 "Hg10 mi
2:00 PM66 °FSunny.21 mph32%30.07 "Hg10 mi
1:30 PM64 °FSunny.16 mph34%30.07 "Hg10 mi
1:00 PM66 °FSunny.9 mph32%30.07 "Hg10 mi
12:30 PM63 °FSunny.15 mph37%30.09 "Hg10 mi
12:00 PM63 °FSunny.18 mph39%30.09 "Hg10 mi
11:30 AM64 °FSunny.16 mph37%30.09 "Hg10 mi
11:00 AM63 °FSunny.15 mph39%30.12 "Hg10 mi
10:30 AM61 °FSunny.14 mph42%30.12 "Hg10 mi
10:00 AM61 °FSunny.14 mph42%30.15 "Hg10 mi
9:30 AM57 °FSunny.8 mph51%30.15 "Hg10 mi
9:00 AM55 °FSunny.9 mph55%30.15 "Hg10 mi
8:30 AM54 °FSunny.13 mph54%30.15 "Hg10 mi
8:00 AM50 °FSunny.14 mph67%30.15 "Hg10 mi
7:30 AM50 °FSunny.8 mph67%30.15 "Hg10 mi
7:00 AM50 °FSunny.8 mph67%30.15 "Hg10 mi
6:30 AM50 °FSunny.8 mph67%30.15 "Hg10 mi
6:00 AM50 °FSunny.12 mph67%30.12 "Hg10 mi
5:30 AM50 °FClear.9 mph67%30.12 "Hg10 mi
5:00 AM50 °FClear.9 mph67%30.12 "Hg10 mi
4:30 AM48 °FClear.12 mph71%30.12 "Hg10 mi
4:00 AM50 °FClear.3 mph67%30.12 "Hg10 mi
3:30 AM48 °FClear.6 mph71%30.12 "Hg10 mi
3:00 AM48 °FClear.6 mph71%30.15 "Hg10 mi
2:30 AM48 °FClear.7 mph71%30.15 "Hg10 mi
2:00 AM50 °FClear.6 mph67%30.15 "Hg10 mi
1:30 AM50 °FClear.5 mph71%30.15 "Hg10 mi
1:00 AM50 °FClear.9 mph71%30.15 "Hg10 mi
12:30 AM50 °FClear.12 mph76%30.15 "Hg10 mi
12:00 AM50 °FClear.3 mph76%30.15 "Hg10 mi
11:30 PM
Jul 27
54 °FClear.5 mph67%30.15 "Hg10 mi
11:00 PM54 °FPassing clouds.6 mph67%30.18 "HgN/A
10:30 PM55 °FClear.5 mph59%30.18 "Hg10 mi
10:00 PM55 °FClear.3 mph59%30.18 "Hg10 mi
9:30 PM55 °FPassing clouds.5 mph59%30.18 "HgN/A
9:00 PM55 °FClear.6 mph59%30.21 "Hg10 mi
Weather by CustomWeather, © 2014

See weather overviewHow to use our weather pages